Total_Precipitation_Accumulation
0.02 0.04 0.06 0.13 0.28 0.11 0.02 0.09 0.00 0.02 0.01 0.00 0.00 0.01 0.06 0.12 0.18 0.60 0.10 0.04 0.01 0.00 0.00 0.00 0.00 0.00 0.00 0.01 0.01 0.00 0.00 0.00 0.00 0.01 0.00 0.00 0.00 0.00 0.00 0.00 0.01 0.07 0.05 0.03 0.00 0.00 0.00 0.01 0.04
0.05 0.09 0.16 0.68 0.16 0.02 0.01 0.00 0.00 0.00 0.00 0.00 0.00 0.11 0.21 0.14 0.00 0.00 0.01 0.03 0.00 0.00 0.00 0.00 0.01 0.01 0.00 0.00 0.01 0.00 0.00 0.00 0.00 0.00 0.00 0.00 0.00 0.00 0.00 0.00 0.00 0.00 0.03 0.00 0.01 0.01 0.04 0.12 0.09
0.12 0.15 0.54 0.95 0.16 0.02 0.03 0.02 0.00 0.01 0.00 0.00 0.00 0.13 0.19 0.07 0.00 0.00 0.00 0.00 0.00 0.00 0.00 0.00 0.01 0.00 0.00 0.00 0.00 0.00 0.00 0.00 0.00 0.00 0.00 0.00 0.00 0.00 0.00 0.00 0.00 0.00 0.11 0.10 0.03 0.00 0.01 0.08 0.17
0.07 0.16 0.29 0.11 0.17 0.07 0.02 0.02 0.00 0.02 0.03 0.01 0.00 0.09 0.04 0.00 0.00 0.00 0.00 0.00 0.00 0.00 0.00 0.01 0.01 0.00 0.00 0.00 0.00 0.00 0.00 0.00 0.00 0.01 0.00 0.00 0.00 0.00 0.00 0.00 0.01 0.10 0.26 0.16 0.00 0.00 0.02 0.07 0.20
0.09 0.33 0.78 0.27 0.11 0.03 0.03 0.02 0.01 0.05 0.11 0.07 0.08 0.25 0.04 0.03 0.03 0.00 0.00 0.00 0.00 0.00 0.00 0.00 0.01 0.01 0.01 0.00 0.00 0.01 0.01 0.00 0.00 0.00 0.00 0.00 0.00 0.00 0.00 0.00 0.01 0.09 0.09 0.04 0.00 0.00 0.05 0.11 0.15
0.06 0.18 0.20 0.05 0.03 0.01 0.03 0.05 0.01 0.00 0.03 0.02 0.03 0.08 0.04 0.01 0.00 0.00 0.00 0.01 0.00 0.00 0.00 0.00 0.01 0.01 0.01 0.01 0.01 0.01 0.02 0.00 0.00 0.00 0.00 0.00 0.00 0.00 0.00 0.00 0.02 0.10 0.07 0.00 0.01 0.03 0.04 0.08 0.12
0.02 0.06 0.09 0.03 0.02 0.00 0.01 0.06 0.02 0.03 0.16 0.13 0.05 0.03 0.06 0.02 0.01 0.01 0.01 0.01 0.01 0.01 0.00 0.00 0.00 0.02 0.02 0.01 0.01 0.03 0.01 0.01 0.00 0.01 0.00 0.00 0.00 0.00 0.00 0.00 0.07 0.11 0.16 0.08 0.13 0.08 0.05 0.09 0.09
0.00 0.00 0.02 0.11 0.01 0.06 0.04 0.01 0.00 0.00 0.00 0.04 0.09 0.03 0.08 0.03 0.00 0.00 0.03 0.09 0.03 0.04 0.00 0.00 0.02 0.06 0.07 0.03 0.03 0.05 0.03 0.02 0.01 0.01 0.00 0.03 0.05 0.08 0.11 0.09 0.14 0.13 0.17 0.26 0.23 0.20 0.18 0.13 0.12
0.00 0.00 0.00 0.01 0.01 0.11 0.14 0.01 0.03 0.01 0.00 0.06 0.06 0.02 0.01 0.00 0.00 0.00 0.01 0.06 0.03 0.06 0.02 0.02 0.00 0.12 0.21 0.09 0.07 0.08 0.05 0.06 0.04 0.02 0.03 0.06 0.26 0.71 0.68 0.38 0.25 0.20 0.40 0.47 0.45 0.43 0.34 0.22 0.15
0.00 0.00 0.00 0.00 0.00 0.00 0.02 0.04 0.05 0.07 0.01 0.02 0.18 0.12 0.01 0.00 0.00 0.00 0.00 0.02 0.01 0.01 0.00 0.05 0.06 0.05 0.02 0.08 0.14 0.07 0.02 0.01 0.02 0.09 0.18 0.11 0.38 0.69 0.19 0.14 0.16 0.37 0.56 0.44 0.76 0.59 0.38 0.13 0.23
0.00 0.00 0.00 0.00 0.00 0.00 0.00 0.01 0.02 0.15 0.03 0.06 0.11 0.05 0.00 0.00 0.00 0.00 0.00 0.01 0.10 0.05 0.00 0.03 0.02 0.01 0.01 0.38 0.07 0.04 0.00 0.00 0.02 0.08 0.12 0.09 0.23 0.54 0.09 0.10 0.18 0.45 0.31 0.26 0.79 0.94 0.75 0.72 0.84
0.00 0.00 0.00 0.00 0.00 0.00 0.00 0.00 0.01 0.14 0.12 0.13 0.09 0.02 0.00 0.00 0.00 0.00 0.00 0.06 0.06 0.04 0.01 0.01 0.05 0.03 0.00 0.02 0.01 0.05 0.00 0.00 0.01 0.00 0.01 0.03 0.04 0.06 0.28 0.39 0.29 0.32 0.16 0.13 0.35 0.83 0.68 0.98 1.40
0.00 0.00 0.00 0.00 0.00 0.00 0.00 0.00 0.01 0.08 0.07 0.08 0.02 0.01 0.00 0.00 0.01 0.01 0.01 0.01 0.00 0.01 0.06 0.04 0.07 0.00 0.00 0.01 0.00 0.00 0.00 0.00 0.00 0.00 0.00 0.00 0.01 0.01 0.09 0.29 0.36 0.33 0.19 0.31 0.46 0.83 1.15 0.49 0.19
0.00 0.00 0.00 0.00 0.00 0.00 0.00 0.01 0.04 0.01 0.07 0.01 0.00 0.00 0.00 0.00 0.02 0.01 0.01 0.00 0.00 0.00 0.02 0.01 0.03 0.00 0.00 0.02 0.00 0.00 0.01 0.00 0.00 0.00 0.00 0.00 0.00 0.01 0.05 0.73 1.18 0.80 0.25 0.25 0.95 0.95 1.27 0.56 0.12
0.00 0.00 0.00 0.00 0.00 0.00 0.00 0.04 0.01 0.00 0.00 0.00 0.01 0.03 0.00 0.00 0.01 0.01 0.00 0.00 0.00 0.00 0.00 0.00 0.01 0.00 0.00 0.00 0.00 0.00 0.00 0.00 0.00 0.00 0.00 0.00 0.00 0.01 0.05 0.26 0.18 0.16 0.13 0.30 0.30 0.33 1.84 0.96 0.21
0.00 0.00 0.00 0.00 0.00 0.00 0.00 0.00 0.00 0.00 0.00 0.00 0.22 0.29 0.02 0.00 0.00 0.00 0.00 0.00 0.00 0.00 0.00 0.00 0.00 0.00 0.00 0.00 0.00 0.00 0.00 0.00 0.00 0.00 0.00 0.00 0.00 0.01 0.00 0.01 0.01 0.03 0.15 0.20 0.24 0.18 0.51 0.48 0.23
0.00 0.00 0.00 0.00 0.00 0.00 0.00 0.00 0.00 0.00 0.00 0.00 0.02 0.12 0.01 0.00 0.00 0.00 0.00 0.00 0.00 0.01 0.01 0.00 0.00 0.00 0.00 0.00 0.00 0.00 0.00 0.01 0.00 0.00 0.00 0.00 0.00 0.00 0.00 0.00 0.01 0.03 0.06 0.18 0.22 0.13 0.23 0.23 0.54
0.00 0.00 0.00 0.00 0.00 0.00 0.00 0.00 0.00 0.00 0.00 0.00 0.00 0.00 0.00 0.00 0.00 0.00 0.00 0.00 0.01 0.01 0.01 0.01 0.00 0.00 0.00 0.02 0.00 0.00 0.00 0.00 0.00 0.00 0.00 0.00 0.00 0.00 0.00 0.00 0.07 0.05 0.04 0.14 0.60 0.13 0.05 0.06 0.11
0.00 0.00 0.00 0.00 0.00 0.00 0.00 0.00 0.00 0.00 0.00 0.00 0.00 0.00 0.00 0.00 0.00 0.00 0.00 0.00 0.00 0.01 0.00 0.00 0.00 0.00 0.00 0.00 0.00 0.00 0.00 0.00 0.00 0.01 0.00 0.00 0.00 0.00 0.00 0.00 0.03 0.09 0.01 0.12 0.15 0.04 0.15 0.05 0.12
0.00 0.00 0.00 0.00 0.00 0.00 0.00 0.00 0.00 0.00 0.00 0.00 0.00 0.00 0.00 0.00 0.00 0.00 0.00 0.00 0.00 0.00 0.00 0.00 0.00 0.00 0.00 0.00 0.00 0.00 0.01 0.01 0.00 0.02 0.01 0.00 0.00 0.00 0.00 0.00 0.00 0.00 0.01 0.05 0.06 0.06 0.07 0.04 0.19
0.00 0.00 0.00 0.00 0.00 0.00 0.00 0.18 0.10 0.02 0.00 0.00 0.00 0.00 0.00 0.00 0.00 0.01 0.00 0.00 0.00 0.00 0.00 0.00 0.00 0.00 0.00 0.01 0.00 0.01 0.10 0.15 0.14 0.12 0.07 0.02 0.00 0.00 0.00 0.01 0.02 0.01 0.00 0.00 0.01 0.06 0.08 0.04 0.04
0.00 0.00 0.00 0.00 0.00 0.00 0.00 0.15 0.17 0.11 0.05 0.00 0.00 0.00 0.00 0.00 0.01 0.05 0.00 0.00 0.00 0.00 0.00 0.00 0.00 0.00 0.00 0.01 0.01 0.00 0.14 0.09 0.01 0.00 0.00 0.01 0.00 0.03 0.01 0.00 0.01 0.05 0.02 0.01 0.01 0.03 0.03 0.01 0.01
0.00 0.00 0.00 0.00 0.00 0.00 0.00 0.09 0.45 0.50 0.06 0.00 0.00 0.00 0.00 0.00 0.00 0.00 0.00 0.01 0.00 0.02 0.01 0.00 0.00 0.00 0.00 0.00 0.00 0.01 0.15 0.04 0.02 0.00 0.07 0.16 0.03 0.01 0.01 0.00 0.02 0.09 0.02 0.01 0.00 0.01 0.07 0.03 0.01
0.00 0.00 0.00 0.00 0.00 0.00 0.00 0.02 0.56 0.11 0.00 0.00 0.00 0.00 0.00 0.00 0.00 0.00 0.00 0.01 0.00 0.00 0.02 0.02 0.00 0.00 0.00 0.00 0.00 0.01 0.06 0.03 0.04 0.08 0.21 0.10 0.02 0.01 0.00 0.03 0.07 0.32 0.15 0.07 0.05 0.03 0.11 0.03 0.01
0.00 0.00 0.00 0.00 0.00 0.00 0.00 0.01 0.17 0.00 0.00 0.00 0.00 0.00 0.00 0.00 0.00 0.00 0.00 0.00 0.01 0.00 0.01 0.01 0.00 0.00 0.00 0.00 0.00 0.00 0.01 0.08 0.08 0.37 0.16 0.03 0.02 0.02 0.01 0.11 0.19 0.27 0.36 0.42 0.49 0.29 0.17 0.16 0.03
0.00 0.00 0.00 0.00 0.00 0.00 0.00 0.03 0.04 0.00 0.00 0.00 0.00 0.00 0.00 0.00 0.00 0.00 0.00 0.00 0.00 0.00 0.04 0.06 0.01 0.00 0.00 0.01 0.01 0.01 0.02 0.06 0.07 0.11 0.16 0.02 0.01 0.02 0.01 0.05 0.34 0.33 0.43 0.33 0.37 0.34 0.22 0.04 0.05
0.00 0.00 0.00 0.00 0.00 0.00 0.02 0.05 0.01 0.00 0.00 0.00 0.00 0.00 0.00 0.00 0.00 0.00 0.00 0.00 0.00 0.00 0.04 0.11 0.02 0.00 0.00 0.01 0.04 0.03 0.04 0.05 0.06 0.18 0.30 0.06 0.03 0.01 0.07 0.19 0.41 0.41 0.31 0.29 0.35 0.22 0.16 0.20 0.21
0.00 0.00 0.00 0.02 0.00 0.00 0.01 0.03 0.18 0.13 0.01 0.00 0.00 0.00 0.00 0.00 0.00 0.00 0.00 0.00 0.00 0.01 0.07 0.14 0.08 0.05 0.02 0.03 0.08 0.11 0.16 0.11 0.04 0.15 0.13 0.13 0.07 0.11 0.25 0.47 0.35 0.39 0.32 0.35 0.44 0.25 0.22 0.29 0.09
0.01 0.00 0.01 0.00 0.01 0.06 0.04 0.23 0.86 0.69 0.03 0.00 0.00 0.00 0.00 0.00 0.00 0.00 0.00 0.00 0.00 0.03 0.12 0.09 0.10 0.06 0.07 0.09 0.11 0.08 0.10 0.17 0.19 0.16 0.16 0.14 0.15 0.18 0.19 0.44 0.46 0.52 0.54 0.56 0.66 0.53 0.58 0.47 0.21
0.00 0.00 0.02 0.03 0.12 0.05 0.01 0.06 0.07 0.05 0.00 0.00 0.00 0.00 0.00 0.00 0.00 0.00 0.00 0.00 0.01 0.07 0.07 0.06 0.11 0.06 0.05 0.10 0.11 0.18 0.14 0.18 0.21 0.42 0.28 0.25 0.22 0.21 0.23 0.30 0.36 0.41 0.47 0.60 0.56 0.43 0.37 0.36 0.16